Location: Castillon
(43.0896°N, 0.2156°E)
Time: 13:06:35
(UTC+00:00)

FALCON 9 DEB - Pass Details

Date: 16 June 2021
Orbit: 362 x 379 km, 53.0° (Epoch: 31 July)

Event Time Altitude Azimuth Distance (km) Brightness Sun altitude
Exits shadow 22:56:38 35° 36° (NE) 642 4.2 -21.9°
Drops below altitude 10° 22:58:41 10° 50° (NE) 1,419 6.0 -22.0°
Sets 23:00:46 0° 53° (NE) 2,276 7.1 -22.1°
